QPF
0.01 0.01 0.01 0.01 0.01 0.01 0.01 0.01 0.02 0.03 0.03 0.03 0.03 0.03 0.02 0.02 0.03 0.02 0.01 0.01 0.01 0.02 0.03 0.03 0.03 0.03 0.03 0.03 0.02 0.02 0.02 0.03 0.03 0.04 0.03 0.02 0.02 0.02 0.03 0.03 0.03 0.04 0.02
0.01 0.01 0.02 0.02 0.01 0.01 0.01 0.01 0.02 0.03 0.03 0.04 0.05 0.05 0.04 0.03 0.03 0.02 0.01 0.01 0.02 0.02 0.03 0.03 0.03 0.03 0.03 0.02 0.02 0.02 0.03 0.03 0.03 0.03 0.03 0.03 0.02 0.02 0.03 0.02 0.02 0.02 0.03
0.02 0.02 0.02 0.01 0.01 0.01 0.01 0.01 0.01 0.02 0.03 0.05 0.07 0.06 0.05 0.04 0.03 0.03 0.02 0.03 0.03 0.03 0.03 0.04 0.04 0.04 0.04 0.03 0.02 0.02 0.03 0.02 0.03 0.03 0.03 0.04 0.03 0.02 0.02 0.02 0.02 0.02 0.03
0.02 0.02 0.01 0.01 0.01 0.01 0.01 0.01 0.01 0.02 0.03 0.04 0.05 0.08 0.07 0.06 0.05 0.03 0.03 0.04 0.04 0.04 0.03 0.03 0.03 0.03 0.04 0.04 0.04 0.04 0.04 0.04 0.03 0.03 0.03 0.03 0.03 0.02 0.03 0.03 0.03 0.03 0.02
0.02 0.02 0.02 0.02 0.01 0.01 0.01 0.01 0.01 0.02 0.03 0.03 0.04 0.06 0.09 0.07 0.05 0.03 0.03 0.03 0.05 0.04 0.04 0.03 0.03 0.04 0.05 0.06 0.06 0.05 0.04 0.04 0.03 0.03 0.03 0.03 0.03 0.03 0.03 0.03 0.03 0.03 0.03
0.03 0.02 0.02 0.02 0.02 0.01 0.01 0.02 0.02 0.03 0.03 0.03 0.03 0.04 0.07 0.11 0.09 0.06 0.05 0.04 0.04 0.04 0.03 0.02 0.02 0.03 0.04 0.03 0.03 0.03 0.03 0.03 0.03 0.03 0.03 0.03 0.03 0.03 0.03 0.03 0.03 0.03 0.03
0.02 0.03 0.02 0.02 0.02 0.01 0.01 0.02 0.03 0.04 0.03 0.03 0.02 0.02 0.03 0.07 0.11 0.10 0.08 0.06 0.04 0.04 0.03 0.02 0.01 0.01 0.01 0.01 0.02 0.02 0.02 0.02 0.02 0.02 0.03 0.03 0.04 0.03 0.03 0.03 0.04 0.03 0.03
0.02 0.03 0.02 0.02 0.02 0.02 0.02 0.02 0.02 0.03 0.03 0.02 0.03 0.03 0.03 0.03 0.05 0.07 0.09 0.09 0.07 0.03 0.02 0.02 0.02 0.01 0.01 0.01 0.02 0.02 0.02 0.02 0.01 0.02 0.02 0.02 0.03 0.04 0.04 0.04 0.04 0.04 0.04
0.02 0.03 0.03 0.03 0.03 0.02 0.01 0.02 0.03 0.03 0.04 0.04 0.04 0.04 0.03 0.02 0.02 0.03 0.04 0.05 0.05 0.04 0.02 0.02 0.02 0.01 0.01 0.01 0.02 0.02 0.03 0.02 0.01 0.01 0.02 0.02 0.02 0.03 0.03 0.04 0.04 0.04 0.03
0.03 0.03 0.03 0.03 0.03 0.03 0.02 0.02 0.03 0.03 0.04 0.05 0.04 0.03 0.03 0.02 0.01 0.01 0.01 0.02 0.02 0.03 0.03 0.02 0.01 0.01 0.01 0.01 0.01 0.02 0.02 0.03 0.03 0.02 0.02 0.02 0.02 0.02 0.03 0.03 0.05 0.05 0.04
0.04 0.03 0.03 0.03 0.03 0.03 0.02 0.02 0.01 0.02 0.02 0.03 0.04 0.04 0.03 0.03 0.02 0.01 0.01 0.01 0.02 0.03 0.03 0.02 0.01 0.01 0.01 0.01 0.01 0.02 0.02 0.02 0.03 0.03 0.04 0.04 0.03 0.03 0.03 0.03 0.03 0.05 0.05
0.04 0.03 0.02 0.03 0.05 0.04 0.03 0.02 0.01 0.01 0.01 0.02 0.02 0.03 0.03 0.02 0.01 0.01 0.01 0.01 0.01 0.02 0.02 0.01 0.01 0.01 0.01 0.01 0.01 0.01 0.01 0.01 0.02 0.03 0.04 0.05 0.05 0.05 0.05 0.05 0.04 0.03 0.04
0.05 0.04 0.04 0.03 0.03 0.06 0.04 0.02 0.02 0.02 0.02 0.02 0.02 0.03 0.03 0.02 0.01 0.01 0.00 0.00 0.00 0.01 0.01 0.02 0.01 0.01 0.01 0.01 0.01 0.01 0.01 0.01 0.01 0.02 0.02 0.03 0.04 0.05 0.07 0.08 0.08 0.07 0.06
0.05 0.05 0.03 0.04 0.04 0.05 0.04 0.03 0.03 0.02 0.02 0.02 0.02 0.05 0.03 0.02 0.01 0.01 0.01 0.01 0.01 0.01 0.01 0.02 0.02 0.02 0.01 0.01 0.01 0.01 0.01 0.01 0.02 0.02 0.03 0.03 0.04 0.04 0.05 0.07 0.08 0.09 0.09
0.04 0.04 0.04 0.04 0.05 0.04 0.05 0.05 0.03 0.02 0.02 0.02 0.02 0.02 0.02 0.02 0.01 0.01 0.01 0.01 0.01 0.01 0.02 0.02 0.02 0.02 0.02 0.02 0.01 0.01 0.01 0.01 0.02 0.02 0.02 0.03 0.03 0.03 0.04 0.05 0.06 0.07 0.07
0.03 0.03 0.04 0.04 0.05 0.05 0.05 0.06 0.07 0.05 0.03 0.02 0.01 0.02 0.02 0.02 0.01 0.01 0.01 0.01 0.02 0.02 0.02 0.02 0.02 0.02 0.02 0.02 0.02 0.01 0.01 0.02 0.02 0.02 0.02 0.02 0.03 0.03 0.03 0.04 0.05 0.05 0.05
0.03 0.03 0.03 0.03 0.03 0.04 0.05 0.06 0.06 0.05 0.04 0.02 0.02 0.02 0.02 0.02 0.02 0.02 0.02 0.03 0.03 0.03 0.02 0.02 0.02 0.02 0.02 0.02 0.02 0.02 0.01 0.01 0.01 0.02 0.02 0.02 0.02 0.02 0.02 0.04 0.04 0.05 0.05
0.01 0.02 0.02 0.02 0.02 0.02 0.04 0.05 0.06 0.06 0.05 0.04 0.03 0.04 0.05 0.05 0.04 0.04 0.04 0.04 0.03 0.03 0.03 0.03 0.04 0.04 0.03 0.02 0.02 0.03 0.02 0.02 0.02 0.02 0.02 0.02 0.02 0.02 0.02 0.03 0.04 0.04 0.04
0.02 0.02 0.02 0.02 0.02 0.03 0.03 0.04 0.06 0.08 0.08 0.07 0.06 0.06 0.10 0.10 0.07 0.05 0.04 0.04 0.03 0.03 0.03 0.03 0.04 0.05 0.03 0.03 0.02 0.02 0.03 0.02 0.02 0.02 0.02 0.03 0.03 0.03 0.03 0.03 0.03 0.04 0.04
0.02 0.01 0.01 0.02 0.02 0.03 0.04 0.05 0.06 0.07 0.09 0.08 0.08 0.08 0.10 0.10 0.07 0.07 0.06 0.05 0.04 0.03 0.02 0.02 0.03 0.03 0.03 0.03 0.03 0.02 0.03 0.02 0.01 0.01 0.02 0.02 0.03 0.03 0.03 0.03 0.04 0.05 0.05
0.02 0.02 0.02 0.03 0.03 0.03 0.03 0.03 0.04 0.06 0.08 0.09 0.09 0.09 0.11 0.11 0.09 0.09 0.08 0.08 0.06 0.04 0.03 0.03 0.02 0.02 0.02 0.02 0.03 0.03 0.03 0.02 0.02 0.02 0.02 0.02 0.02 0.02 0.03 0.03 0.04 0.05 0.05
0.01 0.02 0.02 0.02 0.03 0.03 0.02 0.02 0.02 0.03 0.05 0.08 0.09 0.10 0.11 0.11 0.10 0.09 0.07 0.07 0.07 0.05 0.04 0.04 0.03 0.02 0.02 0.02 0.02 0.03 0.02 0.02 0.02 0.02 0.02 0.02 0.02 0.03 0.04 0.04 0.04 0.04 0.05
0.01 0.01 0.02 0.02 0.02 0.02 0.02 0.02 0.02 0.02 0.04 0.06 0.09 0.08 0.08 0.09 0.09 0.07 0.06 0.07 0.06 0.04 0.03 0.03 0.02 0.02 0.02 0.02 0.02 0.02 0.02 0.02 0.02 0.03 0.04 0.04 0.03 0.04 0.04 0.05 0.05 0.04 0.04
0.02 0.03 0.02 0.02 0.02 0.02 0.02 0.02 0.02 0.02 0.03 0.05 0.06 0.06 0.07 0.08 0.08 0.06 0.05 0.05 0.05 0.04 0.02 0.02 0.01 0.01 0.01 0.02 0.02 0.02 0.02 0.02 0.02 0.02 0.03 0.04 0.04 0.02 0.02 0.03 0.03 0.03 0.03
0.02 0.03 0.04 0.03 0.02 0.02 0.02 0.02 0.02 0.02 0.02 0.04 0.05 0.05 0.08 0.08 0.06 0.04 0.04 0.03 0.03 0.03 0.02 0.02 0.02 0.01 0.01 0.02 0.01 0.01 0.01 0.01 0.01 0.01 0.01 0.01 0.01 0.01 0.01 0.01 0.02 0.02 0.02
0.02 0.03 0.05 0.05 0.04 0.03 0.03 0.02 0.02 0.02 0.02 0.04 0.05 0.07 0.07 0.05 0.03 0.02 0.02 0.02 0.02 0.02 0.02 0.02 0.02 0.01 0.02 0.02 0.01 0.01 0.01 0.01 0.01 0.01 0.01 0.00 0.01 0.01 0.01 0.02 0.02 0.03 0.03
MSLP
1006.96 1006.72 1006.39 1005.98 1005.48 1004.94 1004.39 1003.89 1003.50 1003.25 1003.17 1003.30 1003.61 1004.08 1004.67 1005.34 1006.03 1006.72 1007.36 1007.94 1008.46 1008.91 1009.30 1009.65 1009.97 1010.27 1010.55 1010.80 1011.04 1011.26 1011.45 1011.61 1011.75 1011.86 1011.96 1012.06 1012.15 1012.27 1012.40 1012.56 1012.75 1012.96 1013.21
1006.66 1006.39 1006.04 1005.60 1005.09 1004.54 1003.97 1003.45 1003.02 1002.71 1002.58 1002.62 1002.86 1003.26 1003.80 1004.44 1005.13 1005.84 1006.54 1007.20 1007.80 1008.34 1008.82 1009.24 1009.61 1009.94 1010.24 1010.50 1010.74 1010.95 1011.14 1011.31 1011.45 1011.57 1011.68 1011.77 1011.85 1011.94 1012.03 1012.15 1012.29 1012.46 1012.66
1006.33 1006.05 1005.69 1005.24 1004.73 1004.17 1003.60 1003.06 1002.59 1002.25 1002.05 1002.02 1002.18 1002.51 1002.99 1003.59 1004.27 1005.00 1005.75 1006.47 1007.15 1007.77 1008.33 1008.81 1009.23 1009.58 1009.89 1010.15 1010.38 1010.59 1010.78 1010.94 1011.09 1011.23 1011.34 1011.44 1011.52 1011.60 1011.68 1011.77 1011.88 1012.02 1012.19
1006.00 1005.73 1005.37 1004.92 1004.41 1003.85 1003.28 1002.73 1002.24 1001.86 1001.61 1001.51 1001.60 1001.85 1002.27 1002.82 1003.48 1004.21 1004.99 1005.76 1006.50 1007.18 1007.79 1008.33 1008.78 1009.16 1009.47 1009.73 1009.95 1010.15 1010.34 1010.51 1010.67 1010.82 1010.96 1011.08 1011.18 1011.28 1011.36 1011.44 1011.54 1011.66 1011.82
1005.70 1005.44 1005.09 1004.65 1004.15 1003.59 1003.03 1002.47 1001.97 1001.55 1001.25 1001.10 1001.11 1001.29 1001.64 1002.14 1002.77 1003.48 1004.26 1005.05 1005.82 1006.54 1007.19 1007.76 1008.24 1008.63 1008.95 1009.21 1009.43 1009.63 1009.82 1010.01 1010.20 1010.38 1010.55 1010.71 1010.85 1010.97 1011.08 1011.18 1011.28 1011.40 1011.55
1005.43 1005.19 1004.85 1004.43 1003.94 1003.40 1002.84 1002.28 1001.77 1001.33 1000.99 1000.79 1000.74 1000.85 1001.13 1001.56 1002.13 1002.81 1003.56 1004.35 1005.12 1005.86 1006.52 1007.11 1007.60 1008.00 1008.33 1008.60 1008.83 1009.04 1009.26 1009.47 1009.69 1009.92 1010.14 1010.34 1010.53 1010.69 1010.84 1010.96 1011.09 1011.22 1011.37
1005.18 1004.96 1004.65 1004.25 1003.78 1003.26 1002.71 1002.17 1001.65 1001.20 1000.84 1000.59 1000.48 1000.53 1000.74 1001.11 1001.61 1002.23 1002.93 1003.68 1004.43 1005.15 1005.81 1006.39 1006.88 1007.29 1007.63 1007.91 1008.17 1008.41 1008.65 1008.90 1009.17 1009.44 1009.72 1009.98 1010.21 1010.42 1010.60 1010.76 1010.91 1011.06 1011.23
1004.94 1004.75 1004.47 1004.10 1003.66 1003.17 1002.64 1002.12 1001.62 1001.16 1000.78 1000.51 1000.36 1000.36 1000.51 1000.80 1001.23 1001.78 1002.41 1003.09 1003.79 1004.47 1005.09 1005.65 1006.14 1006.55 1006.90 1007.20 1007.48 1007.75 1008.03 1008.33 1008.64 1008.96 1009.28 1009.58 1009.86 1010.10 1010.32 1010.51 1010.69 1010.87 1011.06
1004.67 1004.52 1004.28 1003.95 1003.56 1003.10 1002.62 1002.13 1001.65 1001.21 1000.84 1000.56 1000.39 1000.35 1000.44 1000.67 1001.03 1001.50 1002.05 1002.65 1003.28 1003.89 1004.46 1004.98 1005.44 1005.84 1006.19 1006.50 1006.80 1007.11 1007.42 1007.75 1008.10 1008.45 1008.80 1009.13 1009.43 1009.71 1009.95 1010.17 1010.38 1010.59 1010.82
1004.35 1004.25 1004.06 1003.79 1003.44 1003.05 1002.62 1002.17 1001.74 1001.34 1000.99 1000.73 1000.56 1000.50 1000.56 1000.74 1001.03 1001.42 1001.89 1002.40 1002.94 1003.47 1003.97 1004.43 1004.84 1005.21 1005.55 1005.86 1006.17 1006.49 1006.82 1007.16 1007.52 1007.89 1008.25 1008.59 1008.90 1009.19 1009.46 1009.70 1009.95 1010.21 1010.49
1003.97 1003.92 1003.78 1003.57 1003.29 1002.96 1002.59 1002.21 1001.84 1001.50 1001.20 1000.97 1000.83 1000.78 1000.83 1000.98 1001.22 1001.54 1001.93 1002.35 1002.79 1003.23 1003.65 1004.03 1004.38 1004.71 1005.01 1005.30 1005.59 1005.90 1006.23 1006.57 1006.92 1007.28 1007.63 1007.96 1008.27 1008.57 1008.85 1009.13 1009.42 1009.73 1010.08
1003.51 1003.51 1003.43 1003.28 1003.07 1002.80 1002.51 1002.20 1001.90 1001.63 1001.40 1001.23 1001.13 1001.12 1001.18 1001.33 1001.54 1001.81 1002.13 1002.47 1002.82 1003.16 1003.48 1003.78 1004.06 1004.31 1004.56 1004.81 1005.07 1005.35 1005.65 1005.96 1006.29 1006.62 1006.95 1007.27 1007.58 1007.88 1008.19 1008.50 1008.85 1009.23 1009.66
1002.99 1003.04 1003.01 1002.91 1002.75 1002.55 1002.32 1002.09 1001.87 1001.67 1001.52 1001.43 1001.40 1001.44 1001.54 1001.69 1001.90 1002.14 1002.41 1002.68 1002.94 1003.20 1003.43 1003.64 1003.83 1004.01 1004.19 1004.39 1004.60 1004.83 1005.09 1005.37 1005.67 1005.97 1006.28 1006.59 1006.90 1007.22 1007.56 1007.92 1008.33 1008.79 1009.30
1002.47 1002.53 1002.53 1002.46 1002.35 1002.19 1002.02 1001.85 1001.70 1001.58 1001.52 1001.50 1001.55 1001.65 1001.80 1001.98 1002.20 1002.43 1002.66 1002.87 1003.07 1003.25 1003.40 1003.53 1003.64 1003.76 1003.88 1004.02 1004.18 1004.37 1004.59 1004.83 1005.10 1005.39 1005.68 1006.00 1006.33 1006.68 1007.07 1007.50 1007.98 1008.52 1009.11
1001.99 1002.04 1002.03 1001.97 1001.87 1001.74 1001.61 1001.49 1001.40 1001.35 1001.36 1001.42 1001.54 1001.70 1001.90 1002.12 1002.35 1002.58 1002.79 1002.97 1003.13 1003.24 1003.34 1003.41 1003.47 1003.53 1003.60 1003.70 1003.82 1003.98 1004.18 1004.41 1004.67 1004.95 1005.26 1005.60 1005.97 1006.37 1006.82 1007.32 1007.88 1008.50 1009.16
1001.60 1001.61 1001.58 1001.50 1001.39 1001.27 1001.16 1001.07 1001.02 1001.02 1001.08 1001.20 1001.38 1001.59 1001.83 1002.09 1002.34 1002.57 1002.77 1002.94 1003.06 1003.15 1003.21 1003.25 1003.28 1003.32 1003.37 1003.45 1003.57 1003.73 1003.93 1004.16 1004.43 1004.74 1005.09 1005.47 1005.89 1006.36 1006.88 1007.45 1008.08 1008.76 1009.47
1001.35 1001.31 1001.23 1001.12 1000.99 1000.86 1000.75 1000.68 1000.66 1000.69 1000.79 1000.94 1001.15 1001.40 1001.67 1001.94 1002.20 1002.44 1002.64 1002.80 1002.91 1002.99 1003.05 1003.09 1003.12 1003.17 1003.24 1003.33 1003.47 1003.65 1003.87 1004.14 1004.44 1004.79 1005.19 1005.62 1006.11 1006.64 1007.23 1007.86 1008.54 1009.25 1009.98
1001.25 1001.16 1001.03 1000.89 1000.75 1000.61 1000.50 1000.44 1000.43 1000.48 1000.59 1000.76 1000.99 1001.24 1001.51 1001.79 1002.05 1002.28 1002.48 1002.64 1002.76 1002.85 1002.93 1002.99 1003.06 1003.14 1003.25 1003.39 1003.57 1003.79 1004.06 1004.36 1004.71 1005.11 1005.55 1006.03 1006.57 1007.16 1007.79 1008.46 1009.17 1009.89 1010.60
1001.29 1001.16 1001.02 1000.86 1000.71 1000.58 1000.48 1000.43 1000.43 1000.49 1000.61 1000.78 1001.00 1001.24 1001.50 1001.75 1002.00 1002.22 1002.41 1002.57 1002.71 1002.83 1002.94 1003.05 1003.17 1003.31 1003.47 1003.67 1003.91 1004.17 1004.48 1004.82 1005.21 1005.63 1006.10 1006.62 1007.19 1007.80 1008.45 1009.13 1009.82 1010.52 1011.19
1001.45 1001.32 1001.18 1001.04 1000.92 1000.81 1000.74 1000.72 1000.74 1000.80 1000.92 1001.08 1001.27 1001.49 1001.71 1001.94 1002.15 1002.35 1002.53 1002.70 1002.85 1003.00 1003.16 1003.32 1003.50 1003.71 1003.93 1004.18 1004.46 1004.77 1005.11 1005.47 1005.87 1006.30 1006.77 1007.28 1007.84 1008.43 1009.07 1009.72 1010.38 1011.02 1011.63
1001.68 1001.58 1001.49 1001.40 1001.34 1001.29 1001.27 1001.28 1001.32 1001.41 1001.52 1001.66 1001.83 1002.01 1002.20 1002.38 1002.56 1002.73 1002.90 1003.07 1003.24 1003.42 1003.62 1003.84 1004.07 1004.33 1004.61 1004.90 1005.21 1005.54 1005.87 1006.23 1006.60 1007.00 1007.44 1007.91 1008.42 1008.96 1009.54 1010.13 1010.72 1011.30 1011.82
1001.94 1001.91 1001.90 1001.90 1001.91 1001.93 1001.98 1002.04 1002.12 1002.22 1002.34 1002.47 1002.61 1002.75 1002.90 1003.05 1003.19 1003.34 1003.50 1003.67 1003.86 1004.06 1004.30 1004.56 1004.84 1005.13 1005.44 1005.76 1006.08 1006.39 1006.70 1007.02 1007.34 1007.68 1008.04 1008.43 1008.86 1009.32 1009.82 1010.32 1010.83 1011.32 1011.76
1002.20 1002.27 1002.35 1002.44 1002.54 1002.65 1002.77 1002.88 1003.00 1003.12 1003.24 1003.37 1003.49 1003.61 1003.72 1003.84 1003.96 1004.10 1004.25 1004.42 1004.62 1004.85 1005.11 1005.40 1005.71 1006.03 1006.36 1006.67 1006.97 1007.25 1007.52 1007.77 1008.02 1008.27 1008.53 1008.83 1009.16 1009.52 1009.91 1010.32 1010.74 1011.14 1011.50
1002.47 1002.62 1002.80 1002.98 1003.16 1003.34 1003.51 1003.67 1003.82 1003.96 1004.09 1004.21 1004.32 1004.42 1004.53 1004.63 1004.74 1004.87 1005.02 1005.21 1005.42 1005.67 1005.96 1006.26 1006.59 1006.92 1007.24 1007.55 1007.82 1008.06 1008.27 1008.46 1008.62 1008.78 1008.95 1009.14 1009.36 1009.62 1009.91 1010.23 1010.55 1010.87 1011.16
1002.75 1002.98 1003.22 1003.47 1003.70 1003.92 1004.13 1004.31 1004.48 1004.63 1004.77 1004.89 1005.00 1005.10 1005.21 1005.31 1005.43 1005.57 1005.73 1005.93 1006.16 1006.43 1006.73 1007.06 1007.39 1007.73 1008.04 1008.33 1008.58 1008.79 1008.95 1009.07 1009.17 1009.26 1009.34 1009.44 1009.57 1009.74 1009.94 1010.16 1010.41 1010.65 1010.88
1003.09 1003.36 1003.63 1003.90 1004.15 1004.38 1004.59 1004.78 1004.95 1005.10 1005.24 1005.37 1005.49 1005.60 1005.72 1005.85 1005.99 1006.14 1006.33 1006.55 1006.80 1007.08 1007.40 1007.73 1008.07 1008.41 1008.72 1009.00 1009.24 1009.43 1009.56 1009.66 1009.71 1009.75 1009.78 1009.82 1009.88 1009.97 1010.09 1010.24 1010.41 1010.59 1010.77
Thickness
5727 5725 5723 5722 5720 5719 5718 5716 5714 5713 5712 5711 5710 5709 5708 5707 5706 5705 5705 5704 5702 5701 5700 5699 5698 5698 5699 5700 5699 5698 5697 5696 5692 5695 5698 5697 5693 5692 5692 5691 5691 5691 5690
5724 5721 5719 5718 5717 5715 5714 5712 5710 5708 5708 5707 5706 5705 5704 5703 5702 5701 5700 5699 5698 5697 5696 5695 5694 5695 5693 5694 5693 5692 5692 5691 5688 5687 5689 5690 5688 5687 5687 5686 5688 5689 5689
5719 5717 5715 5714 5713 5711 5709 5707 5706 5704 5703 5702 5701 5700 5699 5698 5697 5697 5695 5694 5693 5693 5691 5690 5689 5688 5687 5688 5687 5687 5687 5686 5684 5683 5684 5684 5684 5684 5682 5683 5684 5683 5685
5714 5713 5710 5710 5708 5706 5705 5703 5701 5700 5698 5697 5696 5696 5695 5694 5693 5691 5690 5689 5688 5688 5687 5686 5685 5683 5681 5680 5681 5680 5680 5679 5678 5678 5678 5679 5679 5679 5678 5678 5679 5680 5680
5709 5707 5706 5705 5704 5702 5700 5698 5696 5694 5694 5692 5691 5690 5690 5689 5687 5686 5684 5684 5683 5682 5681 5681 5679 5677 5674 5673 5675 5674 5674 5673 5673 5673 5672 5673 5673 5672 5672 5674 5673 5675 5676
5703 5702 5701 5700 5698 5696 5694 5692 5690 5688 5687 5686 5685 5684 5683 5683 5678 5675 5675 5677 5676 5675 5674 5674 5674 5672 5669 5666 5665 5664 5664 5665 5666 5666 5667 5666 5665 5666 5667 5667 5668 5668 5669
5697 5696 5695 5693 5692 5691 5689 5687 5684 5682 5681 5680 5679 5678 5676 5673 5668 5667 5666 5668 5669 5668 5667 5667 5669 5668 5665 5665 5661 5658 5658 5657 5656 5658 5660 5660 5660 5661 5659 5660 5660 5661 5662
5691 5690 5689 5687 5686 5684 5682 5680 5678 5676 5675 5674 5673 5671 5669 5666 5661 5660 5658 5660 5661 5661 5660 5661 5660 5659 5660 5657 5657 5657 5657 5656 5653 5653 5653 5654 5654 5653 5652 5652 5653 5654 5656
5683 5682 5681 5680 5679 5677 5675 5672 5671 5669 5668 5667 5666 5664 5662 5658 5653 5652 5650 5654 5653 5653 5654 5654 5653 5652 5649 5647 5649 5650 5650 5650 5649 5646 5645 5645 5645 5644 5644 5646 5648 5648 5650
5675 5675 5674 5673 5671 5669 5667 5665 5664 5662 5661 5660 5659 5657 5655 5652 5646 5643 5641 5648 5647 5647 5646 5646 5644 5643 5641 5639 5642 5643 5643 5644 5644 5643 5641 5640 5641 5641 5639 5639 5642 5642 5644
5668 5668 5667 5665 5664 5662 5660 5658 5657 5656 5655 5653 5651 5650 5647 5645 5639 5636 5634 5639 5641 5641 5641 5642 5641 5635 5633 5632 5633 5636 5635 5635 5637 5638 5638 5639 5639 5639 5638 5637 5637 5636 5637
5661 5659 5658 5657 5656 5655 5652 5651 5650 5648 5647 5645 5644 5642 5640 5638 5634 5630 5628 5628 5629 5632 5633 5636 5634 5628 5627 5626 5627 5627 5627 5627 5632 5633 5633 5633 5634 5634 5634 5633 5631 5630 5630
5652 5651 5649 5648 5647 5647 5645 5644 5643 5641 5641 5640 5639 5637 5636 5634 5629 5624 5622 5621 5621 5623 5627 5624 5623 5621 5620 5622 5621 5620 5621 5624 5626 5626 5627 5627 5628 5628 5627 5627 5626 5625 5624
5644 5642 5642 5641 5640 5639 5638 5638 5637 5636 5635 5634 5633 5632 5631 5629 5627 5624 5621 5618 5615 5616 5618 5618 5615 5615 5616 5616 5617 5618 5619 5620 5620 5620 5620 5621 5622 5621 5621 5621 5621 5620 5620
5636 5635 5635 5635 5634 5632 5631 5629 5629 5628 5627 5624 5626 5625 5624 5623 5617 5613 5614 5615 5614 5613 5612 5615 5616 5617 5617 5617 5617 5616 5616 5615 5614 5613 5613 5613 5613 5613 5613 5614 5613 5613 5612
5629 5628 5629 5628 5626 5626 5624 5622 5617 5617 5614 5612 5612 5612 5613 5609 5606 5605 5603 5602 5602 5602 5605 5610 5611 5612 5613 5613 5613 5611 5610 5609 5608 5606 5606 5606 5606 5606 5606 5606 5606 5606 5605
5621 5621 5621 5621 5619 5618 5617 5616 5613 5608 5605 5603 5602 5602 5601 5599 5598 5597 5595 5594 5594 5595 5601 5605 5605 5606 5606 5606 5606 5604 5603 5603 5601 5600 5599 5599 5599 5599 5599 5598 5598 5597 5597
5614 5613 5612 5612 5612 5612 5611 5610 5609 5608 5605 5602 5596 5594 5593 5592 5591 5590 5589 5589 5594 5594 5598 5599 5599 5599 5599 5598 5598 5597 5597 5596 5595 5593 5593 5592 5592 5592 5591 5592 5591 5590 5589
5607 5607 5606 5607 5607 5606 5605 5604 5603 5602 5600 5598 5597 5592 5587 5586 5585 5584 5584 5589 5593 5594 5594 5594 5593 5592 5592 5591 5591 5590 5590 5589 5588 5587 5586 5585 5584 5584 5584 5584 5584 5581 5580
5600 5597 5598 5600 5601 5600 5599 5597 5596 5595 5594 5592 5591 5590 5587 5585 5586 5585 5583 5585 5586 5587 5587 5586 5585 5585 5584 5583 5583 5583 5583 5582 5581 5581 5580 5579 5578 5577 5576 5576 5576 5576 5576
5595 5594 5590 5594 5595 5594 5593 5591 5590 5588 5588 5586 5585 5584 5580 5583 5584 5583 5582 5581 5580 5580 5579 5578 5578 5577 5577 5577 5576 5575 5574 5574 5573 5572 5572 5571 5571 5570 5569 5569 5569 5570 5569
5589 5589 5589 5589 5588 5587 5586 5585 5584 5582 5582 5580 5579 5578 5572 5575 5578 5578 5577 5575 5574 5572 5572 5571 5570 5570 5569 5569 5567 5567 5566 5566 5564 5563 5563 5563 5563 5563 5562 5562 5562 5562 5562
5581 5582 5582 5582 5582 5578 5579 5579 5578 5577 5575 5574 5573 5571 5569 5569 5570 5570 5569 5568 5566 5565 5564 5563 5563 5562 5560 5559 5558 5557 5556 5555 5554 5553 5553 5554 5555 5555 5555 5554 5554 5555 5555
5575 5575 5575 5575 5574 5574 5574 5572 5571 5571 5569 5567 5566 5565 5564 5563 5563 5562 5562 5561 5560 5558 5557 5555 5555 5553 5551 5550 5549 5548 5546 5544 5543 5545 5545 5545 5546 5547 5547 5547 5548 5549 5548
5568 5568 5568 5568 5567 5567 5566 5565 5565 5564 5563 5561 5559 5558 5557 5556 5556 5555 5555 5554 5553 5552 5550 5548 5547 5546 5544 5542 5540 5538 5536 5534 5533 5533 5536 5537 5538 5538 5539 5540 5540 5541 5540
5561 5561 5560 5560 5560 5559 5559 5558 5557 5556 5555 5554 5553 5551 5550 5549 5548 5547 5547 5547 5546 5545 5543 5542 5540 5538 5536 5534 5531 5529 5527 5526 5524 5525 5526 5528 5529 5530 5530 5530 5531 5531 5531